User: anonymous   Login
Location: Robert Brownlee Observatory
(34.2308°N, 117.2089°W)
Time: 16:11:22
(UTC-07:00)
Language:

Cosmos 1943 - Orbit

View from above orbital plane
View from above orbital plane
View from above satellite
View from above satellite

Ground track
Ground track

The orbit data is extracted from the following two-line orbital elements,

1 19119U 88039A   16121.77820637  .00000060  00000-0  55787-4 0  9992
2 19119  71.0032 247.8189 0012742 316.7733 146.7757 14.15057825443759
Epoch (UTC): 30 April 2016 18:40:37
Eccentricity: 0.0012742
inclination: 71.0032°
perigee height: 833 km
apogee height: 851 km
right ascension of ascending node: 247.8189°
argument of perigee: 316.7733°
revolutions per day: 14.15057825
mean anomaly at epoch: 146.7757°
orbit number at epoch: 44375

The dashed part of the orbit path shows where the satellite is in the earth's shadow,  

DLR